Other Public Products
Issued by NWS Grand Forks, ND

Home | Current Version | Previous Version | Text Only | Print | Product List | Glossary Off
Versions: 1 2 3 4 5 6 7 8 9 10 11 12 13 14 15 16 17 18 19 20 21 22 23 24 25 26 27 28 29 30 31 32 33 34 35 36 37 38 39 40 41 42 43 44 45 46 47 48 49 50

000
FPUS83 KFGF 292031
OPUFGF
PRAIRIE TO PINES WEATHER ROUNDUP
NATIONAL WEATHER SERVICE EASTERN NORTH DAKOTA/GRAND FORKS ND
300 PM CDT FRI MAY 29 2015

 **SATELLITE DATA USED TO AUGMENT SKY COVER AT AUTOMATED STATIONS**
 *****  WEATHER ACROSS EASTERN NORTH DAKOTA  *****

CITY           SKY/WX    TMP DP  RH WIND       PRES   REMARKS
GRAND FORKS    PTSUNNY   53  39  59 N24G32    30.18S
GRAND FORKS AF PTSUNNY   53  36  53 N22G36    30.19S
GRAND CITY NWS   N/A     54 N/A N/A N22         N/A
BUXTON           N/A     53  41  65 NW17G36     N/A
DEVILS LAKE    MOSUNNY   54  32  43 N14G21    30.22S
FARGO          CLOUDY    52  41  66 N24G31    30.15S
WAHPETON ARPT  CLOUDY    46  37  71 N23G32    30.13R
$$

 *****  WEATHER ACROSS CENTRAL AND WESTERN NORTH DAKOTA  *****

CITY           SKY/WX    TMP DP  RH WIND       PRES   REMARKS
JAMESTOWN      PTSUNNY   54  39  57 N24G31    30.18S
BISMARCK       CLOUDY    54  35  48 N16G24    30.26S
MINOT          MOSUNNY   52  34  50 NW10G22   30.28F
MINOT AFB      MOSUNNY   55  36  47 NE14      30.27F
GARRISON         N/A     51  33  50 N10G21    30.28S
WILLISTON      SUNNY     56  32  40 N10G18    30.31F
DICKINSON      MOSUNNY   53  35  50 N7        30.27S
HETTINGER      PTSUNNY   51  35  54 N14       30.29R
$$

 *****  OTHER OBSERVATIONS NORTHEAST NORTH DAKOTA  *****

CITY           SKY/WX    TMP DP  RH WIND       PRES   REMARKS
WALHALLA         N/A     54  32  43 MISG      30.24S
LANGDON        FAIR      52  36  54 N20G28    30.23R
CAVALIER       FAIR      50  36  57 N23G30    30.22S
GRAFTON        FAIR      52  39  62 N22G30    30.20F
CANDO          FAIR      54  32  43 N15G28    30.25S
FORT TOTTEN      N/A     55  40  56 N6        29.95S
ROLLA          FAIR      52  32  46 N20G30    30.25S
RUGBY          NOT AVBL
 ***** THE ABOVE OBSERVATIONS ARE NON NWS ARE NOT QUALITY
        CONTROLLED AND MAY MIS-REPORT RAIN FOR SNOW...
$$

 *****  OTHER OBSERVATIONS SOUTHEAST NORTH DAKOTA *****

CITY           SKY/WX    TMP DP  RH WIND       PRES   REMARKS
COOPERSTOWN    NOT AVBL
VALLEY CITY    FAIR      54  39  58 N23G29    30.17S
OAKES            N/A     52  43  71 N21G29    30.16S
GWINNER        NOT AVBL
SHEYENNE NWR     N/A     52  41  66 N15       29.95S
BUFFALO        NOT AVBL
WYNDMERE         N/A     46  43  87 N15         N/A
 ***** THE ABOVE OBSERVATIONS ARE NON NWS ARE NOT QUALITY
       CONTROLLED AND MAY MIS-REPORT RAIN FOR SNOW...
$$

  *****  WEATHER ACROSS NORTHERN MINNESOTA  *****

CITY           SKY/WX    TMP DP  RH WIND       PRES   REMARKS
FLAG ISLAND    SUNNY     50  37  62 N22G28    30.11S
WARROAD        MOSUNNY   54  39  58 N20G29    30.13R
ROSEAU         SUNNY     54  41  62 N14G26    30.14R
HALLOCK        MOSUNNY   54  36  50 N21G28    30.19S
THF RVR FALLS  PTSUNNY   52  37  58 N21       30.15R
HALSTAD          N/A     54  37  53 N22         N/A
FOSSTON        CLOUDY    52  45  76 N17G23    30.13S
BAUDETTE       MOSUNNY   52  40  63 N20G30    30.09S
WASKISH        CLOUDY    54  45  71 N10G20    30.09S
CROOKSTON      MOSUNNY   54  39  58 N24G31    30.16F
$$
  *****  WEATHER ACROSS CENTRAL AND WEST MINNESOTA  *****

CITY           SKY/WX    TMP DP  RH WIND       PRES   REMARKS
BEMIDJI        CLOUDY    52  41  68 N14       30.09S
PARK RAPIDS    CLOUDY    54  42  64 N16       30.06R
WADENA         CLOUDY    52  46  82 N15       30.04S
DETROIT LAKES  PTSUNNY   50  43  76 N14G25    30.11S
MOORHEAD       CLOUDY    48  43  81 N22G29    30.15S
FERGUS FALLS   CLOUDY    50  43  76 N15G28    30.09S
ELBOW LAKE     CLOUDY    51  46  84 N21G28    30.05S
MORRIS MN      CLOUDY    52  48  87 N22G29    30.04R
STAPLES        CLOUDY    52  48  87 N14G21    30.03S
WHEATON        CLOUDY    46  41  81 N25G32    30.12S
$$
  *****  WEATHER ELSEWHERE ACROSS MINNESOTA  *****

CITY           SKY/WX    TMP DP  RH WIND       PRES   REMARKS
DULUTH         LGT RAIN  58  53  84 NW16G24   29.94S
INTRNTL FALLS  CLOUDY    52  42  69 NW17G23   30.06R
ELY            NOT AVBL
CLOQUET        DRIZZLE   57  54  88 N16G24    29.97R
BRAINERD       LGT RAIN  52  49  89 N15       30.01R
HIBBING        CLOUDY    53  48  83 N14       30.00S
ALEXANDRIA     CLOUDY    53  49  86 N14G25    30.03R
SAINT CLOUD    LGT RAIN  61  58  90 N14G22    29.95R
MINNEAPOLIS    RAIN      66  64  93 N8        29.90S FOG
$$

  *****  WEATHER ACROSS SOUTH DAKOTA  *****

CITY           SKY/WX    TMP DP  RH WIND       PRES   REMARKS
SIOUX FALLS    CLOUDY    56  53  90 N18G24    29.97S
BROOKINGS      CLOUDY    50  46  87 N22G30    30.04R
WATERTOWN      LGT RAIN  49  45  86 N21G28    30.07R
HURON          CLOUDY    53  46  77 N26G36    30.10S
SISSETON         N/A     49  44  83 N26G37    30.10R
ABERDEEN       CLOUDY    52  42  69 N21G29    30.17R
MITCHELL       CLOUDY    53  50  89 N23G31    30.07R
PIERRE         CLOUDY    51  45  79 N17G23    30.18R
MOBRIDGE       CLOUDY    53  40  61 N18G26    30.20R
RAPID CITY     CLOUDY    53  45  74 N20G26    30.26S
$$

  *****  SOME WEATHER IN NEARBY STATES *****

CITY           SKY/WX    TMP DP  RH WIND       PRES   REMARKS
GLASGOW MT     SUNNY     56  33  42 VRB3      30.31F
GREAT FALLS MT MOSUNNY   62  48  60 E9G20     30.18F
CHEYENNE WY    PTSUNNY   55  42  61 N23G35    30.25R
SCOTTSBLUFF NE LGT RAIN  51  48  89 N13       30.25R
OMAHA NE       CLOUDY    76  59  55 SW12      29.91S
DES MOINES IA  CLOUDY    73  62  68 SW17      29.92F
DAVENPORT IA   MOSUNNY   80  65  59 SW15      29.93F
CHICAGO IL     LGT RAIN  77  66  68 S18G25    29.93F
EAU CLAIRE WI  CLOUDY    71  64  78 SW6       29.88S
LA CROSSE WI   CLOUDY    76  65  68 SW7       29.87F
$$

  *****  SOME NATIONAL WEATHER *****

CITY           SKY/WX    TMP DP  RH WIND       PRES   REMARKS
LA GUARDIA NY  MOSUNNY   81  54  39 S7        30.24F
RALEIGH NC     MOSUNNY   86  63  45 SE8       30.20F
ATLANTA GA     PTSUNNY   83  64  52 SE7       30.18F
NEW ORLEANS LA PTSUNNY   82  69  64 SE13      30.05F
OKLAHOMA CITY  CLOUDY    78  63  59 VRB7      29.94F
ALBUQUERQUE NM PTSUNNY   79  35  20 CALM      30.15F
SALT LAKE CITY MOSUNNY   73  43  33 N9        30.17F
LOS ANGELES CA MOSUNNY   66  57  72 W12       29.96S
BOISE ID       SUNNY     82  39  21 S14G21    30.05F
SEATTLE WA     MOSUNNY   72  55  55 VRB3      29.97F
$$

*** WEATHER ACROSS MANITOBA...SASKATCHEWAN AND ONTARIO ***
                ***ONTARIO***

CITY           SKY/WX    TMP DP  RH WIND       PRES   REMARKS
GERALDTON      LGT RAIN  54  52  94 N13G18    29.85S FOG
THUNDER BAY    LGT RAIN  63  59  88 NW10      29.87R
SIOUX LOOKOUT  CLOUDY    52  45  76 NW15G23   30.02R
TORONTO        PTSUNNY   75  55  50 SE9       30.14F
BIG TROUT LK   LGT RAIN  37  37 100 E8        30.05S
PICKLE LAKE    LGT RAIN  52  45  76 N6        29.95R
DRYDEN         CLOUDY    50  43  76 NW16G23   30.04S
KENORA         CLOUDY    48  37  66 NW18G25   30.11S
$$
                *** MANITOBA***

CITY           SKY/WX    TMP DP  RH WIND       PRES   REMARKS
BRANDON        MOSUNNY   54  30  40 N9G23     30.29S
DAUPHIN        CLOUDY    45  32  61 NE16G22   30.35S
ISLAND LAKE    CLOUDY    34  27  75 N21G29    30.26R WCI  22
PILOT MOUND      N/A     50  36  57 N18         N/A
THE PAS        CLOUDY    41  21  45 N14       30.41S
THOMPSON       FLURRIES  34  21  60 N17       30.39S WCI  23
WINNIPEG       PTSUNNY   50  32  50 N23G31    30.25S
LYNN LAKE      LGT RAIN  36  21  55 N14       30.42S
CHURCHILL      CLOUDY    30  21  69 N14       30.42  WCI  20
GILLAM         SNOW      28  25  86 N20       30.35R VSB 3/8 WCI  15
$$
                ***SASKATCHEWAN***

CITY           SKY/WX    TMP DP  RH WIND       PRES   REMARKS
ESTEVAN        MOSUNNY   54  34  47 NW10G21   30.31F
KINDERSLEY     PTSUNNY   55  27  33 E7G21     30.30F
LLOYDMINSTER   PTSUNNY   55  23  28 E10       30.32F
PRINCE ALBERT  PTSUNNY   50  25  37 N7        30.40F
REGINA         MOSUNNY   54  21  28 N9G18     30.34F



USA.gov is the U.S. government's official web portal to all federal, state and local government web resources and services.